Theta_e
323 324 325 328 332 333 335 338 343 346 348 339 342 345 346 347 349 349 348 344 344 346 347 344 344 347 343 339 340 339 336 334 330 331 333 337 340 341 342 344 345 345 342
319 322 324 325 327 325 327 334 337 335 335 333 335 335 335 335 341 339 336 335 336 338 339 341 340 343 343 345 345 342 342 342 338 332 334 335 338 342 346 345 345 343 342
318 318 321 323 324 324 323 322 329 332 330 328 328 328 328 329 332 334 333 332 332 335 334 335 337 339 340 339 341 340 341 342 340 336 332 336 336 340 339 341 342 340 339
314 315 317 319 322 322 318 318 320 327 330 329 328 327 327 328 329 330 329 330 332 331 334 335 334 335 335 337 336 336 336 333 332 330 330 330 333 337 339 336 334 337 336
311 312 313 317 319 321 315 314 315 319 320 321 324 326 327 326 324 327 327 328 328 328 329 328 328 324 315 317 323 328 329 324 322 320 322 324 327 330 331 336 333 333 336
310 310 311 313 315 318 318 315 314 318 321 320 321 321 325 322 310 310 323 328 327 326 325 323 324 318 315 311 311 311 315 320 320 317 317 320 327 331 336 337 334 329 322
310 310 310 311 311 314 317 317 314 316 320 320 318 323 324 327 303 305 308 327 328 327 328 327 322 319 319 321 311 310 310 308 311 324 321 323 325 331 334 334 335 334 325
308 308 309 309 309 311 314 318 319 319 317 320 320 322 325 320 312 304 306 330 329 329 329 329 329 324 324 322 321 320 320 322 323 320 325 329 332 334 334 334 334 335 334
306 306 307 309 308 309 311 316 320 324 323 324 325 326 327 327 307 304 309 326 328 329 326 328 327 326 312 306 321 319 319 322 316 308 306 306 304 303 308 324 327 327 327
304 306 306 307 307 308 312 316 319 322 322 325 326 329 324 328 304 302 307 319 324 322 328 330 309 320 304 302 322 320 317 319 320 321 322 321 314 321 307 323 329 325 325
306 305 306 305 306 308 309 310 316 317 320 324 324 327 330 328 324 300 301 320 319 319 318 321 323 304 302 298 302 322 319 316 316 317 317 319 322 325 325 332 333 330 328
305 303 304 304 303 303 307 307 310 311 313 321 323 324 324 330 313 301 298 303 314 322 321 321 322 302 301 300 302 304 299 300 315 314 315 317 319 321 326 334 334 334 339
304 302 301 303 304 304 304 304 302 306 307 314 318 319 320 322 324 303 297 298 301 314 323 315 300 298 300 301 297 297 293 315 314 314 316 318 322 327 329 328 330 331 338
299 299 299 300 301 303 303 302 302 303 306 310 313 314 317 320 320 320 314 308 300 308 310 317 312 309 307 308 310 307 316 316 316 317 318 321 327 325 325 327 331 335 330
297 299 299 299 299 300 301 301 301 306 306 308 314 315 313 313 316 314 314 317 317 311 313 319 318 317 317 316 317 317 317 318 319 320 320 323 323 324 325 332 332 329 325
295 296 296 296 297 297 298 299 297 296 295 295 293 298 305 296 296 298 297 299 300 299 311 314 314 314 314 314 317 317 319 316 319 320 323 325 321 322 325 329 328 325 323
294 296 296 295 296 296 296 297 297 299 295 294 294 292 294 294 295 296 294 294 294 298 313 313 313 315 315 315 316 315 315 317 322 319 324 324 321 321 320 325 326 324 326
296 294 295 295 296 297 297 297 298 298 298 300 297 295 293 293 294 295 294 292 306 303 312 312 312 312 313 314 315 316 317 319 319 321 325 322 322 321 322 322 324 325 327
292 292 294 293 293 293 295 297 298 298 298 299 301 299 295 292 292 293 293 306 309 309 310 310 310 311 313 314 316 316 317 317 319 323 324 322 322 323 322 321 323 309 315
292 291 291 292 292 292 292 293 294 296 298 299 300 301 304 300 301 302 305 306 308 309 310 310 310 311 314 314 315 316 316 318 321 324 322 322 322 324 323 323 327 325 327
291 291 290 291 291 291 290 292 293 294 295 297 299 301 294 302 303 304 306 306 307 309 310 311 312 312 313 314 315 315 316 319 325 323 322 322 322 325 325 326 326 326 324
293 293 292 292 293 292 290 292 293 294 295 296 299 299 289 303 303 304 305 307 308 309 310 312 312 312 314 314 315 315 319 322 325 323 322 324 325 324 327 327 327 328 325
297 297 297 296 296 292 293 293 293 295 296 297 298 299 300 303 303 304 305 308 309 311 313 314 313 312 315 317 318 316 318 323 325 325 326 325 326 325 325 327 324 323 324
302 302 305 305 301 298 296 295 295 294 297 298 301 301 300 302 303 305 305 309 309 311 312 312 313 312 315 317 320 324 325 327 327 327 328 328 326 317 325 323 322 324 321
304 305 309 308 305 301 299 298 298 298 300 300 301 302 303 304 304 306 309 310 310 310 310 312 313 314 316 317 321 323 313 296 319 311 330 326 324 325 323 323 320 317 314
298 299 300 303 305 308 305 304 303 304 304 304 304 304 306 307 306 307 308 309 311 311 312 313 315 316 319 320 319 308 295 294 309 294 321 325 324 321 320 318 314 310 307
Wind_Speed
11 10 12 11 11 14 12 13 15 13 14 11 11 14 17 16 14 13 14 13 16 13 12 12 13 12 9 8 8 9 11 10 9 12 9 8 11 10 9 8 8 10 9
10 11 11 11 10 6 10 11 11 11 11 12 13 13 14 14 11 12 12 12 13 13 12 13 13 8 10 9 7 11 9 8 7 14 9 8 11 12 11 10 8 6 8
11 12 9 11 9 5 11 16 20 15 13 14 15 15 16 15 14 14 12 13 11 12 9 10 12 11 10 8 10 9 9 8 7 8 11 7 9 10 9 9 8 8 8
12 13 13 11 10 12 1 10 18 16 1 10 12 13 13 12 12 12 12 11 11 11 10 9 10 10 9 9 9 7 7 7 8 9 9 8 9 11 8 8 9 7 8
15 15 15 14 12 11 6 5 17 19 16 12 10 8 11 12 10 12 11 10 8 8 6 5 6 3 10 6 3 3 5 6 8 9 9 9 10 9 9 8 6 6 8
15 17 17 17 15 9 9 9 11 13 20 13 15 13 16 6 7 10 8 8 10 10 8 10 8 9 5 5 4 5 5 6 8 8 10 11 12 9 5 6 6 5 4
16 17 17 18 18 15 12 13 14 13 15 13 16 15 12 8 6 13 11 9 10 10 10 9 8 10 10 10 12 10 10 12 13 8 10 11 14 11 9 9 9 8 6
16 18 18 18 18 19 16 15 17 15 16 17 20 22 15 2 20 17 15 11 10 12 11 10 9 8 9 8 6 8 7 8 8 9 11 11 12 10 10 10 11 10 8
19 20 17 18 19 18 19 16 14 13 18 19 20 23 20 17 24 20 14 14 13 12 13 12 12 11 8 11 8 8 9 8 8 12 13 14 15 14 10 9 11 7 9
18 19 19 16 16 19 17 17 14 12 12 14 17 19 22 18 22 29 17 12 12 11 10 11 11 11 7 13 10 9 10 9 9 10 11 12 12 12 15 12 10 9 7
20 18 18 15 13 15 16 15 14 12 13 15 17 16 17 17 17 19 20 12 12 13 12 12 11 17 15 13 11 10 10 7 9 10 11 10 10 10 9 8 10 9 9
18 16 10 14 12 13 17 14 15 13 13 14 14 12 13 13 14 16 18 21 15 12 13 11 10 14 19 17 12 12 7 3 9 11 11 10 10 10 6 5 10 12 12
19 15 13 17 19 16 17 16 12 14 13 13 12 13 12 12 11 21 16 17 18 9 11 6 8 9 9 10 11 5 8 7 10 11 11 10 8 7 10 6 8 12 11
13 14 13 14 13 15 14 12 12 13 11 13 11 12 11 11 10 13 11 10 12 11 12 10 5 4 7 5 3 8 9 10 10 11 10 11 6 7 6 6 6 6 4
16 14 13 11 13 14 14 12 12 14 13 11 14 11 10 10 10 11 15 13 12 12 12 11 10 10 9 10 11 11 11 11 11 9 9 8 8 7 5 7 4 4 3
14 12 11 10 11 11 11 12 17 14 11 17 4 2 10 13 18 8 13 12 16 14 11 11 11 11 12 12 12 11 11 11 10 9 7 7 6 4 6 6 3 2 4
14 13 9 11 10 11 10 11 11 12 19 19 20 6 5 6 10 10 10 13 17 13 11 12 12 11 10 12 12 12 11 10 9 8 6 5 6 5 4 5 5 5 8
14 18 9 8 8 9 10 10 9 9 9 13 20 20 10 9 7 6 3 4 6 5 11 12 11 10 11 12 12 11 10 8 9 7 6 5 6 5 4 5 5 9 7
11 9 8 8 9 9 7 7 9 10 10 10 9 12 14 12 10 10 9 8 12 12 12 13 12 12 12 12 11 11 10 9 9 5 4 5 5 6 5 5 9 9 8
11 18 15 9 8 10 10 11 10 8 7 9 9 10 10 9 13 13 11 11 12 12 13 13 12 13 12 13 12 10 10 9 5 4 5 6 6 7 8 10 10 9 7
8 8 9 9 10 9 9 10 11 10 10 9 5 8 9 10 14 15 14 14 13 13 12 11 10 11 12 11 11 11 10 8 5 5 6 4 5 7 8 8 6 6 9
8 8 7 8 8 10 10 10 10 10 10 10 10 8 8 9 10 12 14 14 14 14 12 12 11 13 12 12 11 10 9 4 6 7 7 7 8 8 8 8 7 8 11
6 6 7 7 8 10 10 10 10 10 10 10 10 10 11 11 9 10 10 14 14 14 12 11 9 9 7 5 8 9 8 7 8 7 8 8 7 9 9 7 7 9 11
4 5 5 5 6 8 9 9 9 9 10 9 9 9 10 10 9 10 9 11 11 12 11 11 10 9 8 9 8 9 9 6 6 9 11 8 8 5 5 7 8 14 13
10 10 8 6 8 9 11 10 10 10 9 9 8 8 9 10 9 9 10 11 9 9 10 12 12 15 17 17 13 12 8 7 10 7 7 7 6 11 10 10 12 12 14
11 11 10 9 9 8 7 7 7 7 9 9 9 9 11 13 10 9 11 13 13 13 15 12 12 17 16 12 11 8 8 9 8 5 4 8 10 9 10 13 17 12 13
Wind_Direction
320 315 304 308 310 322 262 254 252 246 246 253 204 211 211 214 204 202 220 230 200 215 233 235 222 229 246 259 221 220 238 239 246 267 269 281 287 269 275 274 273 262 266
311 314 310 319 309 333 312 294 237 223 211 218 197 199 201 203 194 204 212 228 232 214 221 243 246 234 234 239 242 244 248 254 247 257 269 270 263 266 260 267 261 258 271
311 305 298 306 305 339 355 336 305 193 203 207 199 199 201 200 194 199 207 218 226 230 222 244 247 238 235 231 232 236 234 227 230 250 268 268 273 266 256 256 265 268 261
297 297 297 294 294 283 328 334 316 282 220 218 202 203 198 195 198 200 201 213 216 221 207 204 213 213 217 225 232 240 256 274 255 244 247 255 257 264 256 254 257 238 260
296 295 292 285 280 287 269 288 318 319 326 306 294 307 210 192 196 198 203 198 210 228 199 176 220 97 68 58 276 266 312 284 273 275 274 265 248 242 242 245 256 263 266
288 291 289 286 275 257 244 232 252 278 271 288 293 257 266 217 183 176 177 188 189 202 178 192 132 141 148 155 205 240 277 276 278 287 288 288 295 301 295 280 274 257 276
270 274 280 282 279 258 231 213 226 254 268 268 273 265 252 296 199 173 176 186 181 180 184 179 195 192 192 194 208 219 234 231 231 247 261 273 288 297 306 291 285 277 261
280 278 276 270 273 274 250 229 223 215 222 251 252 254 247 150 311 253 176 202 190 183 183 190 202 169 184 211 224 231 263 270 234 228 238 257 260 268 283 304 307 293 278
277 275 273 281 274 264 268 249 242 220 215 214 237 244 234 224 165 258 194 200 191 190 195 199 208 216 199 176 228 248 264 275 275 239 247 258 260 264 269 290 276 287 292
260 268 266 268 276 276 260 262 253 246 224 230 224 233 240 221 179 196 204 197 204 200 210 209 205 236 167 175 213 246 263 277 291 310 308 283 264 251 233 238 259 250 247
271 258 252 262 282 278 279 286 265 259 252 233 241 221 230 229 194 187 188 223 208 203 218 209 223 198 207 187 206 240 252 298 297 293 286 284 282 266 253 216 224 231 238
266 254 251 264 274 263 263 270 267 269 265 245 236 238 214 216 213 197 190 200 220 220 209 221 235 188 197 204 205 225 217 248 270 282 284 284 286 281 284 262 242 246 241
260 263 259 242 245 244 241 249 262 261 252 243 233 225 227 196 207 168 195 209 227 239 241 232 99 137 177 198 224 199 170 246 266 271 278 280 284 307 290 261 255 237 229
265 259 250 253 252 241 237 240 238 250 248 237 227 228 223 218 197 169 192 204 229 221 247 262 221 148 176 230 227 204 231 249 256 266 286 295 308 282 249 237 225 183 149
262 254 247 239 244 245 248 240 239 238 243 254 223 224 220 229 215 197 179 195 202 208 196 222 222 225 235 241 245 248 255 259 258 253 274 278 280 258 228 224 190 189 142
255 248 235 236 224 232 239 242 232 249 248 258 251 280 301 44 7 210 170 171 182 171 205 211 216 224 231 237 242 247 249 247 253 259 265 266 240 235 215 212 196 202 207
258 256 254 235 236 228 230 232 233 221 237 257 268 172 210 278 340 352 341 142 137 144 205 207 227 232 237 244 250 255 259 259 261 260 265 214 215 216 211 216 200 216 231
264 253 251 255 241 228 228 228 224 222 221 228 241 255 222 211 179 213 309 305 162 195 220 227 239 244 243 246 251 252 253 254 251 253 253 210 205 206 200 227 220 235 192
262 263 245 230 229 238 249 244 228 220 218 221 227 236 199 183 167 189 177 247 219 209 213 233 242 238 241 242 246 253 251 254 257 235 215 215 204 204 206 225 244 220 190
261 244 235 234 223 216 216 219 225 231 216 213 214 216 232 181 205 221 222 222 232 224 227 223 222 237 237 243 242 244 245 243 228 187 203 220 191 196 219 219 217 178 182
255 253 230 225 223 214 212 216 210 210 212 222 228 209 191 212 214 214 215 216 221 230 236 237 232 216 240 246 244 245 244 235 141 184 196 193 205 218 234 229 194 195 124
248 251 242 233 221 209 203 205 198 212 198 202 202 213 175 188 202 201 215 219 208 221 227 228 224 239 232 224 230 237 252 174 184 191 186 180 192 217 212 218 194 144 125
251 255 251 237 228 207 188 190 189 192 192 195 194 193 194 207 198 206 209 207 207 213 218 229 237 231 271 255 253 232 262 208 198 187 191 180 195 224 210 190 141 133 140
265 253 281 76 71 71 129 161 172 178 181 184 186 174 181 195 204 198 205 207 197 210 217 223 225 227 208 228 242 226 237 211 196 188 191 192 208 199 157 101 114 130 125
21 20 26 46 85 105 125 139 152 172 174 173 177 171 177 185 193 205 195 197 211 204 207 214 215 225 218 225 227 231 208 195 209 165 185 205 150 122 127 115 116 118 125
20 27 26 21 20 46 100 123 142 159 165 171 171 175 182 183 185 191 194 199 200 202 207 202 210 216 218 225 226 213 169 175 172 180 254 137 119 121 111 119 123 125 132